Time,TemperatureF,DewpointF,PressureIn,WindDirection,WindDirectionDegrees,WindSpeedMPH,WindSpeedGustMPH,Humidity,HourlyPrecipIn,Conditions,Clouds,dailyrainin,SoftwareType,DateUTC
2013-09-07 00:00:00,69.7,64.0,30.02,SSE,159,0.0,0.0,82,0.00,,CLR,0.00,VWS V14.01,2013-09-07 05:00:00,
2013-09-07 00:05:00,69.6,63.9,30.02,SSE,159,0.0,0.0,82,0.00,,CLR,0.00,VWS V14.01,2013-09-07 05:05:00,
2013-09-07 00:10:00,69.6,63.9,30.02,SSE,160,0.0,1.0,82,0.00,,CLR,0.00,VWS V14.01,2013-09-07 05:10:00,
2013-09-07 00:15:00,69.5,63.8,30.02,SSE,159,0.0,1.0,82,0.00,,CLR,0.00,VWS V14.01,2013-09-07 05:15:00,
2013-09-07 00:20:00,69.5,63.8,30.02,SSE,159,0.0,0.0,82,0.00,,CLR,0.00,VWS V14.01,2013-09-07 05:20:00,
2013-09-07 00:25:00,69.4,63.7,30.03,SSE,160,0.0,0.0,82,0.00,,CLR,0.00,VWS V14.01,2013-09-07 05:25:00,
2013-09-07 00:30:00,69.4,63.7,30.02,South,190,1.0,1.0,82,0.00,,CLR,0.00,VWS V14.01,2013-09-07 05:30:00,
2013-09-07 00:35:00,69.6,63.9,30.02,South,190,0.0,1.0,82,0.00,,CLR,0.00,VWS V14.01,2013-09-07 05:35:00,
2013-09-07 00:40:00,69.7,64.0,30.02,SW,224,0.0,1.0,82,0.00,,CLR,0.00,VWS V14.01,2013-09-07 05:40:00,
2013-09-07 00:45:00,69.9,63.8,30.02,SW,217,0.0,1.0,81,0.00,,CLR,0.00,VWS V14.01,2013-09-07 05:45:00,
2013-09-07 00:50:00,69.9,63.8,30.02,SW,217,0.0,0.0,81,0.00,,CLR,0.00,VWS V14.01,2013-09-07 05:50:00,
2013-09-07 00:55:00,69.9,63.8,30.03,SW,217,0.0,0.0,81,0.00,,CLR,0.00,VWS V14.01,2013-09-07 05:55:00,
2013-09-07 01:00:00,69.8,63.7,30.03,SW,217,0.0,1.0,81,0.00,,CLR,0.00,VWS V14.01,2013-09-07 06:00:00,
2013-09-07 01:05:00,69.8,64.1,30.03,SW,217,0.0,1.0,82,0.00,,CLR,0.00,VWS V14.01,2013-09-07 06:05:00,
2013-09-07 01:10:00,69.7,64.0,30.03,SW,217,0.0,0.0,82,0.00,,CLR,0.00,VWS V14.01,2013-09-07 06:10:00,
2013-09-07 01:15:00,69.5,63.8,30.03,SW,217,0.0,0.0,82,0.00,,CLR,0.00,VWS V14.01,2013-09-07 06:15:00,
2013-09-07 01:20:00,69.5,63.8,30.02,SW,217,0.0,0.0,82,0.00,,CLR,0.00,VWS V14.01,2013-09-07 06:20:00,
2013-09-07 01:21:00,69.4,64.0,30.02,SW,217,0.0,0.0,83,0.00,,CLR,0.00,VWS V14.01,2013-09-07 06:21:00,
2013-09-07 01:26:00,69.3,63.9,30.02,SW,217,0.0,0.0,83,0.00,,CLR,0.00,VWS V14.01,2013-09-07 06:26:00,
2013-09-07 01:30:00,69.2,63.8,30.02,SW,217,0.0,0.0,83,0.00,,CLR,0.00,VWS V14.01,2013-09-07 06:30:00,
2013-09-07 01:31:00,69.2,63.8,30.02,SW,217,0.0,0.0,83,0.00,,CLR,0.00,VWS V14.01,2013-09-07 06:31:00,
2013-09-07 01:36:00,69.1,64.1,30.02,SW,233,0.0,4.0,84,0.00,,CLR,0.00,VWS V14.01,2013-09-07 06:36:00,
2013-09-07 01:40:00,69.1,64.1,30.02,SW,233,0.0,4.0,84,0.00,,CLR,0.00,VWS V14.01,2013-09-07 06:40:00,
2013-09-07 01:41:00,69.0,64.0,30.02,SW,233,0.0,0.0,84,0.00,,CLR,0.00,VWS V14.01,2013-09-07 06:41:00,
2013-09-07 01:46:00,68.8,63.8,30.02,SW,233,0.0,0.0,84,0.00,,CLR,0.00,VWS V14.01,2013-09-07 06:46:00,
2013-09-07 01:50:00,68.8,63.8,30.02,SW,233,0.0,0.0,84,0.00,,CLR,0.00,VWS V14.01,2013-09-07 06:50:00,
2013-09-07 01:51:00,68.7,63.7,30.02,SW,233,0.0,0.0,84,0.00,,CLR,0.00,VWS V14.01,2013-09-07 06:51:00,
2013-09-07 01:56:00,68.7,64.0,30.01,SW,232,0.0,1.0,85,0.00,,CLR,0.00,VWS V14.01,2013-09-07 06:56:00,
2013-09-07 02:00:00,68.7,64.0,30.01,SW,226,0.0,1.0,85,0.00,,CLR,0.00,VWS V14.01,2013-09-07 07:00:00,
2013-09-07 02:01:00,68.7,64.0,30.01,SW,226,0.0,0.0,85,0.00,,CLR,0.00,VWS V14.01,2013-09-07 07:01:00,
2013-09-07 02:06:00,68.7,64.0,30.01,West,259,1.0,4.0,85,0.00,,CLR,0.00,VWS V14.01,2013-09-07 07:06:00,
2013-09-07 02:10:00,68.8,64.1,30.01,SW,229,1.0,4.0,85,0.00,,CLR,0.00,VWS V14.01,2013-09-07 07:10:00,
2013-09-07 02:11:00,69.0,64.3,30.01,SW,232,0.0,1.0,85,0.00,,CLR,0.00,VWS V14.01,2013-09-07 07:11:00,
2013-09-07 02:16:00,69.2,64.2,30.01,SW,233,0.0,1.0,84,0.00,,CLR,0.00,VWS V14.01,2013-09-07 07:16:00,
2013-09-07 02:20:00,69.2,64.2,30.01,SW,233,0.0,1.0,84,0.00,,CLR,0.00,VWS V14.01,2013-09-07 07:20:00,
2013-09-07 02:21:00,69.2,64.2,30.01,SW,232,0.0,0.0,84,0.00,,CLR,0.00,VWS V14.01,2013-09-07 07:21:00,
2013-09-07 02:26:00,69.1,64.1,30.01,WSW,250,0.0,0.0,84,0.00,,CLR,0.00,VWS V14.01,2013-09-07 07:26:00,
2013-09-07 02:30:00,69.1,64.1,30.01,WSW,250,0.0,0.0,84,0.00,,CLR,0.00,VWS V14.01,2013-09-07 07:30:00,
2013-09-07 02:31:00,69.1,64.1,30.01,WSW,250,0.0,0.0,84,0.00,,CLR,0.00,VWS V14.01,2013-09-07 07:31:00,
2013-09-07 02:36:00,69.0,64.0,30.01,WNW,300,0.0,0.0,84,0.00,,CLR,0.00,VWS V14.01,2013-09-07 07:36:00,
2013-09-07 02:40:00,69.0,64.0,30.01,WNW,283,0.0,0.0,84,0.00,,OVC018,0.00,VWS V14.01,2013-09-07 07:40:00,
2013-09-07 02:41:00,68.9,63.9,30.01,West,271,0.0,0.0,84,0.00,,CLR,0.00,VWS V14.01,2013-09-07 07:41:00,
2013-09-07 02:46:00,68.8,63.8,30.01,WSW,248,0.0,1.0,84,0.00,,CLR,0.00,VWS V14.01,2013-09-07 07:46:00,
2013-09-07 02:50:00,68.8,63.8,30.01,WSW,251,0.0,1.0,84,0.00,,CLR,0.00,VWS V14.01,2013-09-07 07:50:00,
2013-09-07 02:51:00,68.8,64.1,30.01,WSW,249,0.0,1.0,85,0.00,,CLR,0.00,VWS V14.01,2013-09-07 07:51:00,
2013-09-07 02:57:00,68.7,64.0,30.01,WSW,246,1.0,1.0,85,0.00,,CLR,0.00,VWS V14.01,2013-09-07 07:57:00,
2013-09-07 03:00:00,68.7,64.0,30.01,WNW,294,0.0,3.0,85,0.00,,CLR,0.00,VWS V14.01,2013-09-07 08:00:00,
2013-09-07 03:02:00,68.8,64.1,30.01,SW,224,0.0,1.0,85,0.00,,CLR,0.00,VWS V14.01,2013-09-07 08:02:00,
2013-09-07 03:07:00,68.9,63.9,30.01,WSW,255,1.0,2.0,84,0.00,,CLR,0.00,VWS V14.01,2013-09-07 08:07:00,
2013-09-07 03:10:00,68.9,63.9,30.01,NW,304,0.0,2.0,84,0.00,,CLR,0.00,VWS V14.01,2013-09-07 08:10:00,
2013-09-07 03:12:00,68.9,63.9,30.01,WNW,301,0.0,1.0,84,0.00,,CLR,0.00,VWS V14.01,2013-09-07 08:12:00,
2013-09-07 03:17:00,68.9,63.9,30.01,WSW,245,1.0,2.0,84,0.00,,CLR,0.00,VWS V14.01,2013-09-07 08:17:00,
2013-09-07 03:20:00,68.8,63.8,30.01,WSW,245,0.0,2.0,84,0.00,,CLR,0.00,VWS V14.01,2013-09-07 08:20:00,
2013-09-07 03:22:00,68.8,63.8,30.01,SW,232,1.0,4.0,84,0.00,,CLR,0.00,VWS V14.01,2013-09-07 08:22:00,
2013-09-07 03:27:00,68.8,63.8,30.01,WNW,298,0.0,4.0,84,0.00,,CLR,0.00,VWS V14.01,2013-09-07 08:27:00,
2013-09-07 03:30:00,68.8,63.8,30.01,WNW,298,0.0,4.0,84,0.00,,CLR,0.00,VWS V14.01,2013-09-07 08:30:00,
2013-09-07 03:32:00,68.8,63.8,30.01,South,172,0.0,2.0,84,0.00,,CLR,0.00,VWS V14.01,2013-09-07 08:32:00,
2013-09-07 03:37:00,68.8,63.8,30.01,SW,223,0.0,2.0,84,0.00,,CLR,0.00,VWS V14.01,2013-09-07 08:37:00,
2013-09-07 03:40:00,68.8,63.8,30.01,West,266,1.0,2.0,84,0.00,,CLR,0.00,VWS V14.01,2013-09-07 08:40:00,
2013-09-07 03:42:00,68.8,63.8,30.01,SW,224,0.0,3.0,84,0.00,,CLR,0.00,VWS V14.01,2013-09-07 08:42:00,
2013-09-07 03:47:00,68.8,63.8,30.01,SW,225,0.0,3.0,84,0.00,,CLR,0.00,VWS V14.01,2013-09-07 08:47:00,
2013-09-07 03:50:00,68.8,63.8,30.01,SW,225,0.0,3.0,84,0.00,,CLR,0.00,VWS V14.01,2013-09-07 08:50:00,
2013-09-07 03:52:00,68.9,63.9,30.01,WSW,249,0.0,0.0,84,0.00,,CLR,0.00,VWS V14.01,2013-09-07 08:52:00,
2013-09-07 03:57:00,68.9,63.9,30.01,WSW,249,0.0,2.0,84,0.00,,CLR,0.00,VWS V14.01,2013-09-07 08:57:00,
2013-09-07 04:00:00,68.8,63.8,30.01,WSW,249,0.0,2.0,84,0.00,,CLR,0.00,VWS V14.01,2013-09-07 09:00:00,
2013-09-07 04:02:00,68.8,63.8,30.01,West,270,1.0,3.0,84,0.00,,CLR,0.00,VWS V14.01,2013-09-07 09:02:00,
2013-09-07 04:07:00,68.8,63.8,30.01,WSW,247,1.0,3.0,84,0.00,,CLR,0.00,VWS V14.01,2013-09-07 09:07:00,
2013-09-07 04:10:00,68.8,63.8,30.01,WSW,246,1.0,3.0,84,0.00,,CLR,0.00,VWS V14.01,2013-09-07 09:10:00,
2013-09-07 04:12:00,68.7,63.7,30.01,South,169,0.0,3.0,84,0.00,,CLR,0.00,VWS V14.01,2013-09-07 09:12:00,
2013-09-07 04:17:00,68.6,63.6,30.01,WSW,241,1.0,3.0,84,0.00,,CLR,0.00,VWS V14.01,2013-09-07 09:17:00,
2013-09-07 04:20:00,68.5,63.8,30.01,WSW,238,0.0,3.0,85,0.00,,CLR,0.00,VWS V14.01,2013-09-07 09:20:00,
2013-09-07 04:22:00,68.4,63.7,30.01,SW,227,0.0,2.0,85,0.00,,CLR,0.00,VWS V14.01,2013-09-07 09:22:00,
2013-09-07 04:27:00,68.3,63.6,30.01,South,179,0.0,2.0,85,0.00,,CLR,0.00,VWS V14.01,2013-09-07 09:27:00,
2013-09-07 04:30:00,68.3,63.6,30.01,South,179,0.0,2.0,85,0.00,,CLR,0.00,VWS V14.01,2013-09-07 09:30:00,
2013-09-07 04:33:00,68.2,63.5,30.01,SW,217,0.0,1.0,85,0.00,,CLR,0.00,VWS V14.01,2013-09-07 09:33:00,
2013-09-07 04:38:00,68.1,63.4,30.01,SW,224,0.0,1.0,85,0.00,,CLR,0.00,VWS V14.01,2013-09-07 09:38:00,
2013-09-07 04:40:00,68.1,63.4,30.01,SW,223,0.0,1.0,85,0.00,,CLR,0.00,VWS V14.01,2013-09-07 09:40:00,
2013-09-07 04:43:00,68.0,63.7,30.01,SW,231,0.0,3.0,86,0.00,,CLR,0.00,VWS V14.01,2013-09-07 09:43:00,
2013-09-07 04:48:00,67.9,63.6,30.01,WSW,250,0.0,3.0,86,0.00,,CLR,0.00,VWS V14.01,2013-09-07 09:48:00,
2013-09-07 04:50:00,67.9,63.6,30.01,WSW,250,0.0,3.0,86,0.00,,CLR,0.00,VWS V14.01,2013-09-07 09:50:00,
2013-09-07 04:53:00,67.8,63.5,30.01,WSW,250,0.0,1.0,86,0.00,,CLR,0.00,VWS V14.01,2013-09-07 09:53:00,
2013-09-07 04:58:00,67.7,63.4,30.01,WSW,243,2.0,4.0,86,0.00,,CLR,0.00,VWS V14.01,2013-09-07 09:58:00,
2013-09-07 05:00:00,67.7,63.4,30.01,WSW,243,2.0,4.0,86,0.00,,CLR,0.00,VWS V14.01,2013-09-07 10:00:00,
2013-09-07 05:03:00,67.5,63.2,30.01,SW,233,0.0,2.0,86,0.00,,CLR,0.00,VWS V14.01,2013-09-07 10:03:00,
2013-09-07 05:08:00,67.4,63.4,30.01,SW,229,0.0,0.0,87,0.00,,CLR,0.00,VWS V14.01,2013-09-07 10:08:00,
2013-09-07 05:10:00,67.4,63.4,30.01,SW,229,0.0,2.0,87,0.00,,CLR,0.00,VWS V14.01,2013-09-07 10:10:00,
2013-09-07 05:13:00,67.2,63.2,30.00,SW,228,2.0,2.0,87,0.00,,CLR,0.00,VWS V14.01,2013-09-07 10:13:00,
2013-09-07 05:18:00,67.1,63.1,30.00,WSW,242,0.0,1.0,87,0.00,,CLR,0.00,VWS V14.01,2013-09-07 10:18:00,
2013-09-07 05:20:00,67.2,63.2,30.00,WSW,246,1.0,2.0,87,0.00,,CLR,0.00,VWS V14.01,2013-09-07 10:20:00,
2013-09-07 05:23:00,67.1,63.1,30.00,SW,226,0.0,2.0,87,0.00,,CLR,0.00,VWS V14.01,2013-09-07 10:23:00,
2013-09-07 05:28:00,67.0,63.3,30.00,SSW,207,1.0,1.0,88,0.00,,CLR,0.00,VWS V14.01,2013-09-07 10:28:00,
2013-09-07 05:30:00,67.0,63.3,30.00,SSW,206,0.0,2.0,88,0.00,,CLR,0.00,VWS V14.01,2013-09-07 10:30:00,
2013-09-07 05:33:00,67.0,63.3,30.00,WSW,238,1.0,3.0,88,0.00,,CLR,0.00,VWS V14.01,2013-09-07 10:33:00,
2013-09-07 05:38:00,67.0,63.0,30.01,SW,231,2.0,2.0,87,0.00,,CLR,0.00,VWS V14.01,2013-09-07 10:38:00,
2013-09-07 05:40:00,67.0,63.0,30.01,WSW,240,1.0,3.0,87,0.00,,CLR,0.00,VWS V14.01,2013-09-07 10:40:00,
2013-09-07 05:43:00,67.0,63.3,30.01,SW,226,0.0,2.0,88,0.00,,CLR,0.00,VWS V14.01,2013-09-07 10:43:00,
2013-09-07 05:48:00,67.0,63.0,30.01,WSW,242,0.0,0.0,87,0.00,,CLR,0.00,VWS V14.01,2013-09-07 10:48:00,
2013-09-07 05:50:00,67.0,63.0,30.01,WSW,242,0.0,2.0,87,0.00,,CLR,0.00,VWS V14.01,2013-09-07 10:50:00,
2013-09-07 05:53:00,66.9,62.9,30.01,WSW,248,2.0,4.0,87,0.00,,CLR,0.00,VWS V14.01,2013-09-07 10:53:00,
2013-09-07 05:58:00,66.9,63.2,30.01,WSW,257,2.0,2.0,88,0.00,,CLR,0.00,VWS V14.01,2013-09-07 10:58:00,
2013-09-07 06:00:00,66.9,63.2,30.01,SW,226,0.0,4.0,88,0.00,,CLR,0.00,VWS V14.01,2013-09-07 11:00:00,
2013-09-07 06:03:00,66.7,63.0,30.01,WSW,245,0.0,2.0,88,0.00,,CLR,0.00,VWS V14.01,2013-09-07 11:03:00,
2013-09-07 06:08:00,66.6,62.9,30.01,WSW,240,0.0,0.0,88,0.00,,CLR,0.00,VWS V14.01,2013-09-07 11:08:00,
2013-09-07 06:10:00,66.6,62.9,30.01,WSW,240,0.0,2.0,88,0.00,,CLR,0.00,VWS V14.01,2013-09-07 11:10:00,
2013-09-07 06:14:00,66.5,62.8,30.01,SW,228,0.0,1.0,88,0.00,,CLR,0.00,VWS V14.01,2013-09-07 11:14:00,
2013-09-07 06:19:00,66.4,63.1,30.01,West,259,1.0,2.0,89,0.00,,CLR,0.00,VWS V14.01,2013-09-07 11:19:00,
2013-09-07 06:20:00,66.4,62.7,30.01,West,260,1.0,2.0,88,0.00,,CLR,0.00,VWS V14.01,2013-09-07 11:20:00,
2013-09-07 06:24:00,66.4,62.7,30.01,WSW,240,0.0,2.0,88,0.00,,CLR,0.00,VWS V14.01,2013-09-07 11:24:00,
2013-09-07 06:29:00,66.3,62.6,30.01,WSW,249,0.0,1.0,88,0.00,,CLR,0.00,VWS V14.01,2013-09-07 11:29:00,
2013-09-07 06:30:00,66.4,63.1,30.01,WSW,249,0.0,2.0,89,0.00,,CLR,0.00,VWS V14.01,2013-09-07 11:30:00,
2013-09-07 06:34:00,66.3,63.0,30.02,WSW,246,0.0,1.0,89,0.00,,CLR,0.00,VWS V14.01,2013-09-07 11:34:00,
2013-09-07 06:39:00,66.2,62.9,30.02,WSW,243,0.0,0.0,89,0.00,,CLR,0.00,VWS V14.01,2013-09-07 11:39:00,
2013-09-07 06:40:00,66.2,62.9,30.02,WSW,243,0.0,1.0,89,0.00,,CLR,0.00,VWS V14.01,2013-09-07 11:40:00,
2013-09-07 06:44:00,66.0,62.7,30.01,WSW,243,0.0,0.0,89,0.00,,CLR,0.00,VWS V14.01,2013-09-07 11:44:00,
2013-09-07 06:49:00,65.9,62.6,30.02,WSW,255,0.0,0.0,89,0.00,,CLR,0.00,VWS V14.01,2013-09-07 11:49:00,
2013-09-07 06:50:00,65.9,62.6,30.01,WSW,254,0.0,1.0,89,0.00,,CLR,0.00,VWS V14.01,2013-09-07 11:50:00,
2013-09-07 06:54:00,65.9,62.6,30.01,WSW,252,0.0,0.0,89,0.00,,CLR,0.00,VWS V14.01,2013-09-07 11:54:00,
2013-09-07 06:59:00,65.8,62.5,30.02,WSW,252,0.0,0.0,89,0.00,,CLR,0.00,VWS V14.01,2013-09-07 11:59:00,
2013-09-07 07:00:00,65.8,62.5,30.01,WSW,252,0.0,0.0,89,0.00,,CLR,0.00,VWS V14.01,2013-09-07 12:00:00,
2013-09-07 07:04:00,65.8,62.8,30.01,WSW,252,0.0,0.0,90,0.00,,CLR,0.00,VWS V14.01,2013-09-07 12:04:00,
2013-09-07 07:09:00,65.7,62.7,30.02,WSW,246,0.0,0.0,90,0.00,,CLR,0.00,VWS V14.01,2013-09-07 12:09:00,
2013-09-07 07:10:00,65.7,62.7,30.02,WSW,246,0.0,0.0,90,0.00,,CLR,0.00,VWS V14.01,2013-09-07 12:10:00,
2013-09-07 07:14:00,65.7,62.7,30.02,SW,229,0.0,0.0,90,0.00,,CLR,0.00,VWS V14.01,2013-09-07 12:14:00,
2013-09-07 07:19:00,65.9,62.9,30.02,SW,231,0.0,0.0,90,0.00,,CLR,0.00,VWS V14.01,2013-09-07 12:19:00,
2013-09-07 07:20:00,65.8,62.8,30.02,SW,230,0.0,0.0,90,0.00,,CLR,0.00,VWS V14.01,2013-09-07 12:20:00,
2013-09-07 07:24:00,66.3,63.3,30.02,WSW,256,1.0,2.0,90,0.00,,CLR,0.00,VWS V14.01,2013-09-07 12:24:00,
2013-09-07 07:29:00,66.8,63.5,30.02,WSW,255,0.0,1.0,89,0.00,,CLR,0.00,VWS V14.01,2013-09-07 12:29:00,
2013-09-07 07:30:00,66.7,63.4,30.02,WSW,255,1.0,2.0,89,0.00,,CLR,0.00,VWS V14.01,2013-09-07 12:30:00,
2013-09-07 07:34:00,67.4,63.7,30.02,SW,217,2.0,3.0,88,0.00,,CLR,0.00,VWS V14.01,2013-09-07 12:34:00,
2013-09-07 07:39:00,67.9,63.9,30.02,West,259,1.0,1.0,87,0.00,,CLR,0.00,VWS V14.01,2013-09-07 12:39:00,
2013-09-07 07:40:00,67.7,63.7,30.02,WSW,245,1.0,3.0,87,0.00,,CLR,0.00,VWS V14.01,2013-09-07 12:40:00,
2013-09-07 07:44:00,68.5,64.2,30.02,WNW,288,0.0,3.0,86,0.00,,CLR,0.00,VWS V14.01,2013-09-07 12:44:00,
2013-09-07 07:49:00,69.0,64.3,30.03,WSW,245,1.0,2.0,85,0.00,,CLR,0.00,VWS V14.01,2013-09-07 12:49:00,
2013-09-07 07:50:00,68.9,64.2,30.03,West,280,0.0,3.0,85,0.00,,CLR,0.00,VWS V14.01,2013-09-07 12:50:00,
2013-09-07 07:55:00,69.4,64.4,30.03,WSW,249,0.0,2.0,84,0.00,,CLR,0.00,VWS V14.01,2013-09-07 12:55:00,
2013-09-07 08:00:00,69.8,64.8,30.03,WSW,249,0.0,0.0,84,0.00,,CLR,0.00,VWS V14.01,2013-09-07 13:00:00,
2013-09-07 08:05:00,70.1,64.7,30.03,WSW,248,1.0,2.0,83,0.00,,CLR,0.00,VWS V14.01,2013-09-07 13:05:00,
2013-09-07 08:10:00,70.3,64.6,30.03,WNW,288,0.0,0.0,82,0.00,,CLR,0.00,VWS V14.01,2013-09-07 13:10:00,
2013-09-07 08:15:00,70.4,64.7,30.03,West,259,1.0,2.0,82,0.00,,CLR,0.00,VWS V14.01,2013-09-07 13:15:00,
2013-09-07 08:20:00,70.6,64.8,30.02,West,269,0.0,2.0,82,0.00,,CLR,0.00,VWS V14.01,2013-09-07 13:20:00,
2013-09-07 08:25:00,71.0,65.2,30.02,West,259,0.0,2.0,82,0.00,,CLR,0.00,VWS V14.01,2013-09-07 13:25:00,
2013-09-07 08:30:00,71.1,65.3,30.02,WNW,287,1.0,1.0,82,0.00,,CLR,0.00,VWS V14.01,2013-09-07 13:30:00,
2013-09-07 08:35:00,71.4,65.3,30.02,West,260,1.0,3.0,81,0.00,,CLR,0.00,VWS V14.01,2013-09-07 13:35:00,
2013-09-07 08:40:00,71.9,65.8,30.02,WSW,249,3.0,3.0,81,0.00,,CLR,0.00,VWS V14.01,2013-09-07 13:40:00,
2013-09-07 08:45:00,72.3,65.4,30.02,West,260,2.0,3.0,79,0.00,,CLR,0.00,VWS V14.01,2013-09-07 13:45:00,
2013-09-07 08:50:00,72.7,65.8,30.02,WSW,257,2.0,2.0,79,0.00,,CLR,0.00,VWS V14.01,2013-09-07 13:50:00,
2013-09-07 08:55:00,73.0,65.7,30.02,WSW,257,1.0,4.0,78,0.00,,CLR,0.00,VWS V14.01,2013-09-07 13:55:00,
2013-09-07 09:00:00,73.5,65.9,30.01,West,262,0.0,3.0,77,0.00,,CLR,0.00,VWS V14.01,2013-09-07 14:00:00,
2013-09-07 09:05:00,73.9,66.2,30.01,West,273,1.0,4.0,77,0.00,,CLR,0.00,VWS V14.01,2013-09-07 14:05:00,
2013-09-07 09:10:00,74.2,66.2,30.01,WSW,255,1.0,4.0,76,0.00,,CLR,0.00,VWS V14.01,2013-09-07 14:10:00,
2013-09-07 09:15:00,74.6,66.2,30.01,WSW,240,1.0,4.0,75,0.00,,CLR,0.00,VWS V14.01,2013-09-07 14:15:00,
2013-09-07 09:20:00,75.0,66.2,30.02,WSW,255,1.0,5.0,74,0.00,,CLR,0.00,VWS V14.01,2013-09-07 14:20:00,
2013-09-07 09:25:00,75.5,66.6,30.02,SW,225,3.0,5.0,74,0.00,,CLR,0.00,VWS V14.01,2013-09-07 14:25:00,
2013-09-07 09:30:00,75.7,66.0,30.02,WSW,255,1.0,5.0,72,0.00,,CLR,0.00,VWS V14.01,2013-09-07 14:30:00,
2013-09-07 09:31:00,75.9,66.2,30.02,West,278,1.0,2.0,72,0.00,,CLR,0.00,VWS V14.01,2013-09-07 14:31:00,
2013-09-07 09:36:00,76.3,66.6,30.02,WSW,239,2.0,3.0,72,0.00,,CLR,0.00,VWS V14.01,2013-09-07 14:36:00,
2013-09-07 09:40:00,76.4,66.7,30.02,SW,236,1.0,3.0,72,0.00,,CLR,0.00,VWS V14.01,2013-09-07 14:40:00,
2013-09-07 09:41:00,76.8,67.1,30.02,SSE,153,4.0,4.0,72,0.00,,,0.00,VWS V14.01,2013-09-07 14:41:00,
2013-09-07 09:46:00,77.5,66.1,30.01,WSW,246,1.0,5.0,68,0.00,,,0.00,VWS V14.01,2013-09-07 14:46:00,
2013-09-07 09:50:00,77.6,66.6,30.01,ESE,115,0.0,5.0,69,0.00,,CLR,0.00,VWS V14.01,2013-09-07 14:50:00,
2013-09-07 09:51:00,77.9,66.9,30.01,West,270,1.0,3.0,69,0.00,,,0.00,VWS V14.01,2013-09-07 14:51:00,
2013-09-07 09:56:00,78.7,67.3,30.01,WNW,285,3.0,3.0,68,0.00,,,0.00,VWS V14.01,2013-09-07 14:56:00,
2013-09-07 10:00:00,78.8,66.9,30.01,West,266,1.0,3.0,67,0.00,,CLR,0.00,VWS V14.01,2013-09-07 15:00:00,
2013-09-07 10:01:00,78.9,67.0,30.01,SSE,155,0.0,3.0,67,0.00,,-RA,0.00,VWS V14.01,2013-09-07 15:01:00,
2013-09-07 10:06:00,78.9,67.4,30.02,WSW,240,0.0,3.0,68,0.00,,-RA,0.00,VWS V14.01,2013-09-07 15:06:00,
2013-09-07 10:10:00,78.8,66.9,30.02,SSW,208,0.0,3.0,67,0.00,,CLR,0.00,VWS V14.01,2013-09-07 15:10:00,
2013-09-07 10:11:00,78.7,67.3,30.02,SSW,210,0.0,0.0,68,0.00,,-RA,0.00,VWS V14.01,2013-09-07 15:11:00,
2013-09-07 10:16:00,78.5,67.1,30.02,SW,221,0.0,0.0,68,0.00,,-RA,0.00,VWS V14.01,2013-09-07 15:16:00,
2013-09-07 10:20:00,78.4,67.4,30.02,WSW,253,0.0,0.0,69,0.00,,CLR,0.00,VWS V14.01,2013-09-07 15:20:00,
2013-09-07 10:21:00,78.3,67.7,30.02,WSW,253,0.0,0.0,70,0.00,,CLR,0.00,VWS V14.01,2013-09-07 15:21:00,
2013-09-07 10:26:00,78.1,66.7,30.02,WSW,256,2.0,3.0,68,0.00,,CLR,0.00,VWS V14.01,2013-09-07 15:26:00,
2013-09-07 10:30:00,78.0,66.6,30.02,West,277,1.0,3.0,68,0.00,,CLR,0.00,VWS V14.01,2013-09-07 15:30:00,
2013-09-07 10:31:00,78.0,67.0,30.02,West,264,0.0,2.0,69,0.00,,CLR,0.00,VWS V14.01,2013-09-07 15:31:00,
2013-09-07 10:36:00,77.8,67.2,30.02,West,267,1.0,3.0,70,0.00,,CLR,0.00,VWS V14.01,2013-09-07 15:36:00,
2013-09-07 10:40:00,77.8,67.2,30.01,West,267,0.0,3.0,70,0.00,,CLR,0.00,VWS V14.01,2013-09-07 15:40:00,
2013-09-07 10:41:00,78.0,68.2,30.01,SSW,205,2.0,2.0,72,0.00,,CLR,0.00,VWS V14.01,2013-09-07 15:41:00,
2013-09-07 10:46:00,78.7,68.1,30.01,WNW,282,2.0,6.0,70,0.00,,CLR,0.00,VWS V14.01,2013-09-07 15:46:00,
2013-09-07 10:50:00,78.8,67.8,30.01,West,260,2.0,6.0,69,0.00,,CLR,0.00,VWS V14.01,2013-09-07 15:50:00,
2013-09-07 10:51:00,79.4,68.3,30.00,WSW,245,5.0,5.0,69,0.00,,CLR,0.00,VWS V14.01,2013-09-07 15:51:00,
2013-09-07 10:56:00,80.0,68.5,30.00,WSW,245,1.0,8.0,68,0.00,,CLR,0.00,VWS V14.01,2013-09-07 15:56:00,
2013-09-07 11:00:00,80.2,68.7,30.00,WNW,293,3.0,8.0,68,0.00,,CLR,0.00,VWS V14.01,2013-09-07 16:00:00,
2013-09-07 11:01:00,80.7,67.8,30.00,WNW,285,1.0,5.0,65,0.00,,CLR,0.00,VWS V14.01,2013-09-07 16:01:00,
2013-09-07 11:06:00,81.2,66.9,30.00,SW,233,4.0,6.0,62,0.00,,CLR,0.00,VWS V14.01,2013-09-07 16:06:00,
2013-09-07 11:10:00,81.2,67.4,30.00,West,259,2.0,6.0,63,0.00,,CLR,0.00,VWS V14.01,2013-09-07 16:10:00,
2013-09-07 11:12:00,81.4,67.1,29.99,West,270,4.0,8.0,62,0.00,,CLR,0.00,VWS V14.01,2013-09-07 16:12:00,
2013-09-07 11:17:00,81.6,67.8,30.00,SW,229,3.0,8.0,63,0.00,,CLR,0.00,VWS V14.01,2013-09-07 16:17:00,
2013-09-07 11:20:00,81.7,67.4,29.99,NW,314,2.0,8.0,62,0.00,,CLR,0.00,VWS V14.01,2013-09-07 16:20:00,
2013-09-07 11:22:00,82.2,67.9,29.99,WSW,240,2.0,2.0,62,0.00,,CLR,0.00,VWS V14.01,2013-09-07 16:22:00,
2013-09-07 11:27:00,82.4,67.6,29.99,WNW,300,3.0,7.0,61,0.00,,CLR,0.00,VWS V14.01,2013-09-07 16:27:00,
2013-09-07 11:30:00,82.5,67.7,29.99,NW,316,1.0,7.0,61,0.00,,CLR,0.00,VWS V14.01,2013-09-07 16:30:00,
2013-09-07 11:32:00,82.5,67.7,29.99,WNW,282,1.0,6.0,61,0.00,,CLR,0.00,VWS V14.01,2013-09-07 16:32:00,
2013-09-07 11:37:00,82.7,67.4,29.99,NW,311,2.0,6.0,60,0.00,,CLR,0.00,VWS V14.01,2013-09-07 16:37:00,
2013-09-07 11:40:00,82.6,67.3,29.99,West,274,1.0,6.0,60,0.00,,CLR,0.00,VWS V14.01,2013-09-07 16:40:00,
2013-09-07 11:42:00,82.7,67.9,29.99,West,274,1.0,5.0,61,0.00,,CLR,0.00,VWS V14.01,2013-09-07 16:42:00,
2013-09-07 11:47:00,83.1,67.8,29.98,NW,314,2.0,6.0,60,0.00,,CLR,0.00,VWS V14.01,2013-09-07 16:47:00,
2013-09-07 11:50:00,83.1,67.8,29.98,NW,318,2.0,6.0,60,0.00,,CLR,0.00,VWS V14.01,2013-09-07 16:50:00,
2013-09-07 11:52:00,83.3,67.5,29.98,NW,322,1.0,4.0,59,0.00,,CLR,0.00,VWS V14.01,2013-09-07 16:52:00,
2013-09-07 11:57:00,83.4,66.6,29.97,WNW,290,1.0,9.0,57,0.00,,CLR,0.00,VWS V14.01,2013-09-07 16:57:00,
2013-09-07 12:00:00,83.5,67.2,29.97,NW,304,1.0,9.0,58,0.00,,CLR,0.00,VWS V14.01,2013-09-07 17:00:00,
2013-09-07 12:02:00,83.7,66.9,29.97,West,281,1.0,9.0,57,0.00,,CLR,0.00,VWS V14.01,2013-09-07 17:02:00,
2013-09-07 12:07:00,84.4,67.0,29.97,SW,222,2.0,9.0,56,0.00,,CLR,0.00,VWS V14.01,2013-09-07 17:07:00,
2013-09-07 12:10:00,84.4,66.5,29.97,WNW,287,8.0,14.0,55,0.00,,CLR,0.00,VWS V14.01,2013-09-07 17:10:00,
2013-09-07 12:12:00,84.4,66.5,29.97,WNW,290,3.0,8.0,55,0.00,,CLR,0.00,VWS V14.01,2013-09-07 17:12:00,
2013-09-07 12:17:00,84.5,66.1,29.97,NW,307,4.0,8.0,54,0.00,,CLR,0.00,VWS V14.01,2013-09-07 17:17:00,
2013-09-07 12:20:00,84.5,65.5,29.96,NW,322,2.0,8.0,53,0.00,,CLR,0.00,VWS V14.01,2013-09-07 17:20:00,
2013-09-07 12:22:00,84.7,65.1,29.97,West,273,4.0,7.0,52,0.00,,CLR,0.00,VWS V14.01,2013-09-07 17:22:00,
2013-09-07 12:27:00,85.2,65.6,29.97,WSW,240,3.0,7.0,52,0.00,,CLR,0.00,VWS V14.01,2013-09-07 17:27:00,
2013-09-07 12:30:00,85.2,65.6,29.97,West,267,1.0,7.0,52,0.00,,CLR,0.00,VWS V14.01,2013-09-07 17:30:00,
2013-09-07 12:32:00,85.4,64.7,29.97,WNW,291,1.0,8.0,50,0.00,,CLR,0.00,VWS V14.01,2013-09-07 17:32:00,
2013-09-07 12:37:00,85.7,66.1,29.96,WNW,285,0.0,8.0,52,0.00,,CLR,0.00,VWS V14.01,2013-09-07 17:37:00,
2013-09-07 12:40:00,85.7,66.1,29.96,WSW,248,2.0,8.0,52,0.00,,CLR,0.00,VWS V14.01,2013-09-07 17:40:00,
2013-09-07 12:42:00,86.0,66.3,29.96,West,271,2.0,8.0,52,0.00,,CLR,0.00,VWS V14.01,2013-09-07 17:42:00,
2013-09-07 12:47:00,86.3,66.6,29.95,SW,215,5.0,8.0,52,0.00,,CLR,0.00,VWS V14.01,2013-09-07 17:47:00,
2013-09-07 12:50:00,86.3,66.6,29.96,NW,311,4.0,8.0,52,0.00,,CLR,0.00,VWS V14.01,2013-09-07 17:50:00,
2013-09-07 12:53:00,86.1,65.9,29.96,West,262,3.0,6.0,51,0.00,,CLR,0.00,VWS V14.01,2013-09-07 17:53:00,
2013-09-07 12:58:00,85.9,67.3,29.95,WSW,250,0.0,8.0,54,0.00,,CLR,0.00,VWS V14.01,2013-09-07 17:58:00,
2013-09-07 13:00:00,85.9,67.3,29.95,WSW,250,0.0,8.0,54,0.00,,CLR,0.00,VWS V14.01,2013-09-07 18:00:00,
2013-09-07 13:03:00,85.7,67.2,29.94,NW,325,2.0,7.0,54,0.00,,CLR,0.00,VWS V14.01,2013-09-07 18:03:00,
2013-09-07 13:08:00,85.5,67.0,29.94,West,280,0.0,0.0,54,0.00,,CLR,0.00,VWS V14.01,2013-09-07 18:08:00,
2013-09-07 13:10:00,85.5,67.0,29.94,West,280,0.0,7.0,54,0.00,,CLR,0.00,VWS V14.01,2013-09-07 18:10:00,
2013-09-07 13:13:00,85.5,66.4,29.93,SW,222,6.0,7.0,53,0.00,,CLR,0.00,VWS V14.01,2013-09-07 18:13:00,
2013-09-07 13:18:00,85.4,66.3,29.93,WSW,240,2.0,2.0,53,0.00,,CLR,0.00,VWS V14.01,2013-09-07 18:18:00,
2013-09-07 13:20:00,85.4,66.3,29.93,WSW,243,2.0,7.0,53,0.00,,CLR,0.00,VWS V14.01,2013-09-07 18:20:00,
2013-09-07 13:23:00,86.1,65.3,29.93,SW,235,3.0,6.0,50,0.00,,CLR,0.00,VWS V14.01,2013-09-07 18:23:00,
2013-09-07 13:28:00,86.4,65.0,29.93,WSW,245,5.0,6.0,49,0.00,,CLR,0.00,VWS V14.01,2013-09-07 18:28:00,
2013-09-07 13:30:00,86.4,65.0,29.93,SE,134,5.0,9.0,49,0.00,,CLR,0.00,VWS V14.01,2013-09-07 18:30:00,
2013-09-07 13:33:00,86.6,65.2,29.92,ESE,110,2.0,8.0,49,0.00,,CLR,0.00,VWS V14.01,2013-09-07 18:33:00,
2013-09-07 13:38:00,87.4,64.7,29.93,SW,230,5.0,5.0,47,0.00,,CLR,0.00,VWS V14.01,2013-09-07 18:38:00,
2013-09-07 13:40:00,87.4,64.7,29.93,West,261,1.0,8.0,47,0.00,,CLR,0.00,VWS V14.01,2013-09-07 18:40:00,
2013-09-07 13:43:00,87.9,64.6,29.93,NW,324,2.0,6.0,46,0.00,,CLR,0.00,VWS V14.01,2013-09-07 18:43:00,
2013-09-07 13:48:00,87.4,63.5,29.93,SSW,211,0.0,2.0,45,0.00,,CLR,0.00,VWS V14.01,2013-09-07 18:48:00,
2013-09-07 13:50:00,87.5,63.6,29.93,SE,145,2.0,8.0,45,0.00,,CLR,0.00,VWS V14.01,2013-09-07 18:50:00,
2013-09-07 13:53:00,86.9,64.3,29.94,WSW,245,4.0,6.0,47,0.00,,CLR,0.00,VWS V14.01,2013-09-07 18:53:00,
2013-09-07 13:58:00,86.4,64.4,29.93,West,262,2.0,2.0,48,0.00,,CLR,0.00,VWS V14.01,2013-09-07 18:58:00,
2013-09-07 14:00:00,86.5,64.5,29.93,WSW,243,1.0,6.0,48,0.00,,CLR,0.00,VWS V14.01,2013-09-07 19:00:00,
2013-09-07 14:03:00,86.4,65.0,29.93,West,262,7.0,7.0,49,0.00,,CLR,0.00,VWS V14.01,2013-09-07 19:03:00,
2013-09-07 14:08:00,86.3,64.3,29.93,West,259,0.0,4.0,48,0.00,,CLR,0.00,VWS V14.01,2013-09-07 19:08:00,
2013-09-07 14:10:00,86.3,64.3,29.93,WSW,252,1.0,8.0,48,0.00,,CLR,0.00,VWS V14.01,2013-09-07 19:10:00,
2013-09-07 14:13:00,86.2,64.8,29.93,WSW,251,1.0,5.0,49,0.00,,CLR,0.00,VWS V14.01,2013-09-07 19:13:00,
2013-09-07 14:19:00,85.8,64.4,29.93,WSW,243,0.0,3.0,49,0.00,,CLR,0.00,VWS V14.01,2013-09-07 19:19:00,
2013-09-07 14:20:00,85.9,64.5,29.93,North,349,0.0,5.0,49,0.00,,CLR,0.00,VWS V14.01,2013-09-07 19:20:00,
2013-09-07 14:24:00,85.3,64.0,29.92,WNW,285,1.0,5.0,49,0.00,,CLR,0.00,VWS V14.01,2013-09-07 19:24:00,
2013-09-07 14:29:00,85.0,64.3,29.92,NW,316,1.0,1.0,50,0.00,,CLR,0.00,VWS V14.01,2013-09-07 19:29:00,
2013-09-07 14:30:00,85.1,64.4,29.92,NW,321,0.0,5.0,50,0.00,,CLR,0.00,VWS V14.01,2013-09-07 19:30:00,
2013-09-07 14:34:00,84.8,64.7,29.93,North,353,2.0,3.0,51,0.00,,CLR,0.00,VWS V14.01,2013-09-07 19:34:00,
2013-09-07 14:39:00,84.7,65.1,29.92,West,260,1.0,2.0,52,0.00,,CLR,0.00,VWS V14.01,2013-09-07 19:39:00,
2013-09-07 14:40:00,84.7,64.6,29.93,WSW,250,1.0,3.0,51,0.00,,CLR,0.00,VWS V14.01,2013-09-07 19:40:00,
2013-09-07 14:44:00,84.7,65.7,29.92,WSW,248,0.0,2.0,53,0.00,,CLR,0.00,VWS V14.01,2013-09-07 19:44:00,
2013-09-07 14:49:00,84.5,65.5,29.92,West,280,0.0,0.0,53,0.00,,CLR,0.00,VWS V14.01,2013-09-07 19:49:00,
2013-09-07 14:50:00,84.5,65.5,29.92,West,281,0.0,2.0,53,0.00,,CLR,0.00,VWS V14.01,2013-09-07 19:50:00,
2013-09-07 14:54:00,84.2,65.8,29.92,West,270,0.0,0.0,54,0.00,,CLR,0.00,VWS V14.01,2013-09-07 19:54:00,
2013-09-07 14:59:00,84.1,65.1,29.92,WNW,288,1.0,2.0,53,0.00,,CLR,0.00,VWS V14.01,2013-09-07 19:59:00,
2013-09-07 15:00:00,84.1,64.6,29.92,WSW,243,1.0,3.0,52,0.00,,CLR,0.00,VWS V14.01,2013-09-07 20:00:00,
2013-09-07 15:04:00,84.1,65.7,29.92,NNW,342,0.0,2.0,54,0.00,,CLR,0.00,VWS V14.01,2013-09-07 20:04:00,
2013-09-07 15:09:00,84.0,65.6,29.92,WNW,287,0.0,1.0,54,0.00,,CLR,0.00,VWS V14.01,2013-09-07 20:09:00,
2013-09-07 15:10:00,84.1,65.7,29.92,WNW,287,1.0,2.0,54,0.00,,CLR,0.00,VWS V14.01,2013-09-07 20:10:00,
2013-09-07 15:14:00,83.9,65.5,29.92,West,276,0.0,1.0,54,0.00,,CLR,0.00,VWS V14.01,2013-09-07 20:14:00,
2013-09-07 15:19:00,83.9,66.0,29.92,West,277,0.0,0.0,55,0.00,,CLR,0.00,VWS V14.01,2013-09-07 20:19:00,
2013-09-07 15:20:00,83.9,66.0,29.92,West,277,0.0,1.0,55,0.00,,CLR,0.00,VWS V14.01,2013-09-07 20:20:00,
2013-09-07 15:24:00,84.3,66.4,29.92,West,277,0.0,0.0,55,0.00,,CLR,0.00,VWS V14.01,2013-09-07 20:24:00,
2013-09-07 15:29:00,84.8,66.3,29.92,West,271,0.0,0.0,54,0.00,,CLR,0.00,VWS V14.01,2013-09-07 20:29:00,
2013-09-07 15:30:00,84.7,66.2,29.92,West,277,0.0,0.0,54,0.00,,CLR,0.00,VWS V14.01,2013-09-07 20:30:00,
2013-09-07 15:34:00,85.3,66.8,29.92,NNW,333,0.0,0.0,54,0.00,,CLR,0.00,VWS V14.01,2013-09-07 20:34:00,
2013-09-07 15:39:00,85.4,66.9,29.92,SSE,162,0.0,1.0,54,0.00,,CLR,0.00,VWS V14.01,2013-09-07 20:39:00,
2013-09-07 15:40:00,85.4,66.3,29.92,SW,227,1.0,2.0,53,0.00,,CLR,0.00,VWS V14.01,2013-09-07 20:40:00,
2013-09-07 15:44:00,85.6,65.4,29.92,West,259,3.0,4.0,51,0.00,,CLR,0.00,VWS V14.01,2013-09-07 20:44:00,
2013-09-07 15:49:00,85.7,65.5,29.91,WSW,249,1.0,3.0,51,0.00,,CLR,0.00,VWS V14.01,2013-09-07 20:49:00,
2013-09-07 15:50:00,85.7,65.5,29.91,West,276,2.0,4.0,51,0.00,,CLR,0.00,VWS V14.01,2013-09-07 20:50:00,
2013-09-07 15:55:00,85.8,65.6,29.91,North,1,0.0,3.0,51,0.00,,CLR,0.00,VWS V14.01,2013-09-07 20:55:00,
2013-09-07 16:00:00,86.1,67.0,29.91,West,269,0.0,2.0,53,0.00,,CLR,0.00,VWS V14.01,2013-09-07 21:00:00,
2013-09-07 16:05:00,86.5,66.8,29.91,NW,319,0.0,2.0,52,0.00,,CLR,0.00,VWS V14.01,2013-09-07 21:05:00,
2013-09-07 16:10:00,86.8,65.9,29.91,South,170,0.0,1.0,50,0.00,,CLR,0.00,VWS V14.01,2013-09-07 21:10:00,
2013-09-07 16:15:00,86.9,66.0,29.91,SW,229,1.0,4.0,50,0.00,,CLR,0.00,VWS V14.01,2013-09-07 21:15:00,
2013-09-07 16:20:00,86.7,64.7,29.91,NW,309,1.0,4.0,48,0.00,,CLR,0.00,VWS V14.01,2013-09-07 21:20:00,
2013-09-07 16:25:00,86.6,64.6,29.91,SE,127,1.0,4.0,48,0.00,,CLR,0.00,VWS V14.01,2013-09-07 21:25:00,
2013-09-07 16:30:00,86.8,64.8,29.91,WNW,288,0.0,4.0,48,0.00,,CLR,0.00,VWS V14.01,2013-09-07 21:30:00,
2013-09-07 16:35:00,87.0,64.3,29.91,SSW,197,1.0,5.0,47,0.00,,CLR,0.00,VWS V14.01,2013-09-07 21:35:00,
2013-09-07 16:40:00,87.0,64.3,29.91,WNW,284,1.0,4.0,47,0.00,,CLR,0.00,VWS V14.01,2013-09-07 21:40:00,
2013-09-07 16:45:00,86.7,65.9,29.90,SW,221,7.0,7.0,50,0.00,,CLR,0.00,VWS V14.01,2013-09-07 21:45:00,
2013-09-07 16:50:00,86.2,67.1,29.91,WNW,282,1.0,4.0,53,0.00,,CLR,0.00,VWS V14.01,2013-09-07 21:50:00,
2013-09-07 16:55:00,86.1,67.5,29.91,SW,214,2.0,4.0,54,0.00,,CLR,0.00,VWS V14.01,2013-09-07 21:55:00,
2013-09-07 17:00:00,86.2,67.6,29.91,West,276,1.0,6.0,54,0.00,,CLR,0.00,VWS V14.01,2013-09-07 22:00:00,
2013-09-07 17:05:00,86.3,68.8,29.91,West,259,1.0,6.0,56,0.00,,CLR,0.00,VWS V14.01,2013-09-07 22:05:00,
2013-09-07 17:10:00,86.3,68.8,29.91,West,281,3.0,3.0,56,0.00,,CLR,0.00,VWS V14.01,2013-09-07 22:10:00,
2013-09-07 17:15:00,86.3,67.2,29.91,SSW,202,1.0,4.0,53,0.00,,CLR,0.00,VWS V14.01,2013-09-07 22:15:00,
2013-09-07 17:20:00,86.5,67.3,29.91,SW,222,0.0,2.0,53,0.00,,CLR,0.00,VWS V14.01,2013-09-07 22:20:00,
2013-09-07 17:26:00,86.7,67.0,29.91,SSW,205,0.0,3.0,52,0.00,,CLR,0.00,VWS V14.01,2013-09-07 22:26:00,
2013-09-07 17:30:00,86.7,67.0,29.91,SW,228,2.0,4.0,52,0.00,,CLR,0.00,VWS V14.01,2013-09-07 22:30:00,
2013-09-07 17:31:00,86.6,66.9,29.91,WSW,241,0.0,2.0,52,0.00,,CLR,0.00,VWS V14.01,2013-09-07 22:31:00,
2013-09-07 17:36:00,86.6,66.9,29.91,West,265,0.0,4.0,52,0.00,,CLR,0.00,VWS V14.01,2013-09-07 22:36:00,
2013-09-07 17:40:00,86.5,66.8,29.91,WSW,245,1.0,4.0,52,0.00,,CLR,0.00,VWS V14.01,2013-09-07 22:40:00,
2013-09-07 17:41:00,86.5,66.8,29.91,SW,217,2.0,6.0,52,0.00,,CLR,0.00,VWS V14.01,2013-09-07 22:41:00,
2013-09-07 17:46:00,86.4,67.3,29.91,West,263,0.0,6.0,53,0.00,,CLR,0.00,VWS V14.01,2013-09-07 22:46:00,
2013-09-07 17:50:00,86.3,67.2,29.91,West,263,0.0,6.0,53,0.00,,CLR,0.00,VWS V14.01,2013-09-07 22:50:00,
2013-09-07 17:51:00,86.3,67.2,29.91,West,263,0.0,0.0,53,0.00,,CLR,0.00,VWS V14.01,2013-09-07 22:51:00,
2013-09-07 17:56:00,86.0,67.4,29.91,West,259,0.0,0.0,54,0.00,,CLR,0.00,VWS V14.01,2013-09-07 22:56:00,
2013-09-07 18:00:00,85.9,67.9,29.91,WSW,243,0.0,0.0,55,0.00,,CLR,0.00,VWS V14.01,2013-09-07 23:00:00,
2013-09-07 18:01:00,85.7,67.7,29.91,SSE,153,0.0,2.0,55,0.00,,CLR,0.00,VWS V14.01,2013-09-07 23:01:00,
2013-09-07 18:06:00,85.6,67.1,29.91,SW,226,1.0,2.0,54,0.00,,CLR,0.00,VWS V14.01,2013-09-07 23:06:00,
2013-09-07 18:10:00,85.5,67.5,29.91,SW,225,0.0,2.0,55,0.00,,CLR,0.00,VWS V14.01,2013-09-07 23:10:00,
2013-09-07 18:11:00,85.4,66.9,29.91,SW,229,1.0,2.0,54,0.00,,CLR,0.00,VWS V14.01,2013-09-07 23:11:00,
2013-09-07 18:16:00,85.2,66.7,29.91,WSW,256,0.0,3.0,54,0.00,,CLR,0.00,VWS V14.01,2013-09-07 23:16:00,
2013-09-07 18:20:00,85.1,67.1,29.91,WSW,256,0.0,3.0,55,0.00,,CLR,0.00,VWS V14.01,2013-09-07 23:20:00,
2013-09-07 18:21:00,84.8,67.4,29.91,WSW,255,0.0,0.0,56,0.00,,CLR,0.00,VWS V14.01,2013-09-07 23:21:00,
2013-09-07 18:26:00,84.4,67.5,29.91,WSW,255,0.0,0.0,57,0.00,,CLR,0.00,VWS V14.01,2013-09-07 23:26:00,
2013-09-07 18:30:00,84.2,67.3,29.91,WSW,255,0.0,0.0,57,0.00,,CLR,0.00,VWS V14.01,2013-09-07 23:30:00,
2013-09-07 18:31:00,84.0,67.1,29.91,WSW,255,0.0,0.0,57,0.00,,CLR,0.00,VWS V14.01,2013-09-07 23:31:00,
2013-09-07 18:36:00,83.6,67.3,29.91,WSW,255,0.0,0.0,58,0.00,,CLR,0.00,VWS V14.01,2013-09-07 23:36:00,
2013-09-07 18:40:00,83.5,67.2,29.91,WSW,255,0.0,0.0,58,0.00,,CLR,0.00,VWS V14.01,2013-09-07 23:40:00,
2013-09-07 18:41:00,83.2,67.4,29.91,WSW,255,0.0,0.0,59,0.00,,CLR,0.00,VWS V14.01,2013-09-07 23:41:00,
2013-09-07 18:46:00,82.7,66.9,29.91,WSW,255,0.0,0.0,59,0.00,,CLR,0.00,VWS V14.01,2013-09-07 23:46:00,
2013-09-07 18:50:00,82.6,67.3,29.91,WSW,252,0.0,0.0,60,0.00,,CLR,0.00,VWS V14.01,2013-09-07 23:50:00,
2013-09-07 18:51:00,82.4,67.1,29.91,WSW,252,0.0,0.0,60,0.00,,CLR,0.00,VWS V14.01,2013-09-07 23:51:00,
2013-09-07 18:56:00,82.0,67.2,29.90,WSW,253,0.0,0.0,61,0.00,,CLR,0.00,VWS V14.01,2013-09-07 23:56:00,
2013-09-07 19:00:00,81.9,67.6,29.90,WSW,253,0.0,0.0,62,0.00,,CLR,0.00,VWS V14.01,2013-09-08 00:00:00,
2013-09-07 19:02:00,81.7,67.4,29.90,WSW,252,0.0,0.0,62,0.00,,CLR,0.00,VWS V14.01,2013-09-08 00:02:00,
2013-09-07 19:07:00,81.3,67.5,29.90,SSE,160,0.0,0.0,63,0.00,,CLR,0.00,VWS V14.01,2013-09-08 00:07:00,
2013-09-07 19:10:00,81.2,67.4,29.90,SSE,160,0.0,0.0,63,0.00,,CLR,0.00,VWS V14.01,2013-09-08 00:10:00,
2013-09-07 19:12:00,80.9,67.6,29.90,SSE,160,1.0,1.0,64,0.00,,CLR,0.00,VWS V14.01,2013-09-08 00:12:00,
2013-09-07 19:17:00,80.6,67.3,29.90,SSE,160,0.0,1.0,64,0.00,,CLR,0.00,VWS V14.01,2013-09-08 00:17:00,
2013-09-07 19:20:00,80.6,67.8,29.90,SSE,160,0.0,1.0,65,0.00,,OVC018,0.00,VWS V14.01,2013-09-08 00:20:00,
2013-09-07 19:22:00,80.4,67.6,29.90,SSE,149,0.0,0.0,65,0.00,,CLR,0.00,VWS V14.01,2013-09-08 00:22:00,
2013-09-07 19:27:00,80.2,67.4,29.90,SSE,149,0.0,0.0,65,0.00,,CLR,0.00,VWS V14.01,2013-09-08 00:27:00,
2013-09-07 19:30:00,80.1,67.7,29.90,SSE,149,0.0,0.0,66,0.00,,CLR,0.00,VWS V14.01,2013-09-08 00:30:00,
2013-09-07 19:32:00,79.8,67.4,29.90,SSE,158,2.0,3.0,66,0.00,,CLR,0.00,VWS V14.01,2013-09-08 00:32:00,
2013-09-07 19:37:00,79.5,67.6,29.90,SSE,160,0.0,3.0,67,0.00,,CLR,0.00,VWS V14.01,2013-09-08 00:37:00,
2013-09-07 19:40:00,79.5,67.6,29.90,SSE,167,2.0,3.0,67,0.00,,CLR,0.00,VWS V14.01,2013-09-08 00:40:00,
2013-09-07 19:42:00,79.5,67.6,29.90,SSE,160,1.0,3.0,67,0.00,,CLR,0.00,VWS V14.01,2013-09-08 00:42:00,
2013-09-07 19:47:00,79.5,67.6,29.90,SSE,160,1.0,3.0,67,0.00,,CLR,0.00,VWS V14.01,2013-09-08 00:47:00,
2013-09-07 19:50:00,79.5,67.6,29.90,SSE,166,2.0,3.0,67,0.00,,CLR,0.00,VWS V14.01,2013-09-08 00:50:00,
2013-09-07 19:52:00,79.4,67.5,29.90,South,176,2.0,3.0,67,0.00,,CLR,0.00,VWS V14.01,2013-09-08 00:52:00,
2013-09-07 19:57:00,79.3,67.4,29.90,South,176,0.0,3.0,67,0.00,,CLR,0.00,VWS V14.01,2013-09-08 00:57:00,
2013-09-07 20:00:00,79.2,67.7,29.90,South,174,0.0,3.0,68,0.00,,CLR,0.00,VWS V14.01,2013-09-08 01:00:00,
2013-09-07 20:02:00,79.1,67.6,29.90,South,172,0.0,1.0,68,0.00,,CLR,0.00,VWS V14.01,2013-09-08 01:02:00,
2013-09-07 20:07:00,78.9,67.9,29.90,SSE,153,1.0,2.0,69,0.00,,CLR,0.00,VWS V14.01,2013-09-08 01:07:00,
2013-09-07 20:10:00,78.9,67.9,29.90,SSE,152,1.0,2.0,69,0.00,,CLR,0.00,VWS V14.01,2013-09-08 01:10:00,
2013-09-07 20:12:00,78.6,67.6,29.90,SSE,152,1.0,2.0,69,0.00,,CLR,0.00,VWS V14.01,2013-09-08 01:12:00,
2013-09-07 20:17:00,78.5,67.5,29.91,SSE,160,1.0,2.0,69,0.00,,CLR,0.00,VWS V14.01,2013-09-08 01:17:00,
2013-09-07 20:20:00,78.4,67.4,29.91,SSE,160,1.0,2.0,69,0.00,,CLR,0.00,VWS V14.01,2013-09-08 01:20:00,
2013-09-07 20:22:00,78.4,67.8,29.90,SSE,163,1.0,2.0,70,0.00,,CLR,0.00,VWS V14.01,2013-09-08 01:22:00,
2013-09-07 20:27:00,78.4,67.4,29.90,SSE,152,0.0,2.0,69,0.00,,CLR,0.00,VWS V14.01,2013-09-08 01:27:00,
2013-09-07 20:30:00,78.4,67.4,29.90,SSE,153,0.0,2.0,69,0.00,,CLR,0.00,VWS V14.01,2013-09-08 01:30:00,
2013-09-07 20:32:00,78.4,67.8,29.90,SSE,149,0.0,2.0,70,0.00,,CLR,0.00,VWS V14.01,2013-09-08 01:32:00,
2013-09-07 20:37:00,78.3,67.7,29.90,South,172,1.0,2.0,70,0.00,,CLR,0.00,VWS V14.01,2013-09-08 01:37:00,
2013-09-07 20:40:00,78.3,67.7,29.90,South,172,1.0,2.0,70,0.00,,CLR,0.00,VWS V14.01,2013-09-08 01:40:00,
2013-09-07 20:43:00,78.3,67.7,29.90,South,176,1.0,3.0,70,0.00,,CLR,0.00,VWS V14.01,2013-09-08 01:43:00,
2013-09-07 20:48:00,78.3,67.7,29.90,SSE,152,0.0,3.0,70,0.00,,CLR,0.00,VWS V14.01,2013-09-08 01:48:00,
2013-09-07 20:50:00,78.3,67.3,29.90,SSE,153,0.0,3.0,69,0.00,,CLR,0.00,VWS V14.01,2013-09-08 01:50:00,
2013-09-07 20:53:00,78.3,67.7,29.90,SSW,207,0.0,2.0,70,0.00,,CLR,0.00,VWS V14.01,2013-09-08 01:53:00,
2013-09-07 20:58:00,78.3,67.7,29.90,SSE,158,0.0,2.0,70,0.00,,CLR,0.00,VWS V14.01,2013-09-08 01:58:00,
2013-09-07 21:00:00,78.3,67.7,29.90,SSE,158,0.0,2.0,70,0.00,,CLR,0.00,VWS V14.01,2013-09-08 02:00:00,
2013-09-07 21:03:00,78.2,67.6,29.90,SSW,193,1.0,3.0,70,0.00,,CLR,0.00,VWS V14.01,2013-09-08 02:03:00,
2013-09-07 21:08:00,78.0,67.4,29.90,SSE,152,0.0,0.0,70,0.00,,CLR,0.00,VWS V14.01,2013-09-08 02:08:00,
2013-09-07 21:10:00,78.0,67.4,29.90,SSE,160,0.0,3.0,70,0.00,,CLR,0.00,VWS V14.01,2013-09-08 02:10:00,
2013-09-07 21:13:00,77.9,67.3,29.90,SSE,157,0.0,0.0,70,0.00,,CLR,0.00,VWS V14.01,2013-09-08 02:13:00,
2013-09-07 21:18:00,77.9,67.8,29.90,SSE,158,0.0,0.0,71,0.00,,CLR,0.00,VWS V14.01,2013-09-08 02:18:00,
2013-09-07 21:20:00,77.9,67.8,29.90,SSE,158,0.0,0.0,71,0.00,,CLR,0.00,VWS V14.01,2013-09-08 02:20:00,
2013-09-07 21:23:00,77.9,67.8,29.90,SE,143,1.0,3.0,71,0.00,,CLR,0.00,VWS V14.01,2013-09-08 02:23:00,
2013-09-07 21:28:00,78.0,67.8,29.90,SSE,158,0.0,1.0,71,0.00,,CLR,0.00,VWS V14.01,2013-09-08 02:28:00,
2013-09-07 21:30:00,78.0,67.8,29.90,SSE,158,1.0,3.0,71,0.00,,CLR,0.00,VWS V14.01,2013-09-08 02:30:00,
2013-09-07 21:33:00,78.1,67.5,29.90,South,186,2.0,4.0,70,0.00,,CLR,0.00,VWS V14.01,2013-09-08 02:33:00,
2013-09-07 21:38:00,78.2,67.6,29.90,SSE,163,0.0,1.0,70,0.00,,CLR,0.00,VWS V14.01,2013-09-08 02:38:00,
2013-09-07 21:40:00,78.2,67.6,29.90,SSE,164,1.0,4.0,70,0.00,,CLR,0.00,VWS V14.01,2013-09-08 02:40:00,
2013-09-07 21:43:00,78.3,67.7,29.90,SSE,156,1.0,4.0,70,0.00,,CLR,0.00,VWS V14.01,2013-09-08 02:43:00,
2013-09-07 21:48:00,78.3,67.7,29.91,SSE,157,1.0,2.0,70,0.00,,CLR,0.00,VWS V14.01,2013-09-08 02:48:00,
2013-09-07 21:50:00,78.3,67.7,29.91,SE,134,0.0,4.0,70,0.00,,CLR,0.00,VWS V14.01,2013-09-08 02:50:00,
2013-09-07 21:53:00,78.3,67.7,29.91,SSE,166,2.0,2.0,70,0.00,,CLR,0.00,VWS V14.01,2013-09-08 02:53:00,
2013-09-07 21:58:00,78.3,68.5,29.91,SSE,155,0.0,0.0,72,0.00,,CLR,0.00,VWS V14.01,2013-09-08 02:58:00,
2013-09-07 22:00:00,78.3,68.5,29.91,SSE,155,0.0,2.0,72,0.00,,CLR,0.00,VWS V14.01,2013-09-08 03:00:00,
2013-09-07 22:03:00,77.7,69.2,29.91,SSE,155,0.0,0.0,75,0.00,,CLR,0.00,VWS V14.01,2013-09-08 03:03:00,
2013-09-07 22:08:00,76.8,68.7,29.91,SE,131,1.0,1.0,76,0.00,,CLR,0.00,VWS V14.01,2013-09-08 03:08:00,
2013-09-07 22:10:00,76.9,68.8,29.91,SE,131,1.0,1.0,76,0.00,,CLR,0.00,VWS V14.01,2013-09-08 03:10:00,
2013-09-07 22:13:00,76.2,68.5,29.91,SE,129,2.0,2.0,77,0.00,,CLR,0.00,VWS V14.01,2013-09-08 03:13:00,
2013-09-07 22:19:00,76.1,68.4,29.91,SSE,165,2.0,3.0,77,0.00,,CLR,0.00,VWS V14.01,2013-09-08 03:19:00,
2013-09-07 22:20:00,76.1,68.4,29.91,SSE,152,1.0,2.0,77,0.00,,CLR,0.00,VWS V14.01,2013-09-08 03:20:00,
2013-09-07 22:24:00,76.2,68.5,29.92,SSE,158,0.0,3.0,77,0.00,,SCT095,0.00,VWS V14.01,2013-09-08 03:24:00,
2013-09-07 22:29:00,76.2,68.5,29.91,SSE,158,0.0,1.0,77,0.00,,SCT095,0.00,VWS V14.01,2013-09-08 03:29:00,
2013-09-07 22:30:00,76.2,68.5,29.92,SSE,158,1.0,3.0,77,0.00,,CLR,0.00,VWS V14.01,2013-09-08 03:30:00,
2013-09-07 22:34:00,76.1,68.4,29.92,SSE,152,1.0,1.0,77,0.00,,SCT095,0.00,VWS V14.01,2013-09-08 03:34:00,
2013-09-07 22:39:00,76.2,68.5,29.91,SSE,168,0.0,0.0,77,0.00,,SCT095,0.00,VWS V14.01,2013-09-08 03:39:00,
2013-09-07 22:40:00,76.2,68.5,29.91,SSE,167,0.0,2.0,77,0.00,,CLR,0.00,VWS V14.01,2013-09-08 03:40:00,
2013-09-07 22:44:00,76.2,68.5,29.91,SSE,165,0.0,1.0,77,0.00,,SCT095,0.00,VWS V14.01,2013-09-08 03:44:00,
2013-09-07 22:49:00,76.2,68.5,29.91,SE,143,1.0,1.0,77,0.00,,SCT095,0.00,VWS V14.01,2013-09-08 03:49:00,
2013-09-07 22:50:00,76.1,68.4,29.91,SE,143,1.0,2.0,77,0.00,,CLR,0.00,VWS V14.01,2013-09-08 03:50:00,
2013-09-07 22:54:00,76.2,68.5,29.91,SSE,155,1.0,2.0,77,0.00,,SCT095,0.00,VWS V14.01,2013-09-08 03:54:00,
2013-09-07 22:59:00,76.3,68.2,29.91,SSE,156,2.0,2.0,76,0.00,,SCT095,0.00,VWS V14.01,2013-09-08 03:59:00,
2013-09-07 23:00:00,76.3,68.2,29.91,SE,135,1.0,2.0,76,0.00,,CLR,0.00,VWS V14.01,2013-09-08 04:00:00,
2013-09-07 23:01:00,76.4,68.3,29.91,SSE,166,0.0,2.0,76,0.00,,SCT095,0.00,VWS V14.01,2013-09-08 04:01:00,
2013-09-07 23:02:00,76.4,68.3,29.91,SE,134,0.0,2.0,76,0.00,,SCT095,0.00,VWS V14.01,2013-09-08 04:02:00,
2013-09-07 23:04:00,76.5,68.4,29.91,SSE,156,0.0,2.0,76,0.00,,SCT095,0.00,VWS V14.01,2013-09-08 04:04:00,
2013-09-07 23:08:00,76.5,68.0,29.91,SE,136,1.0,2.0,75,0.00,,SCT095,0.00,VWS V14.01,2013-09-08 04:08:00,
2013-09-07 23:10:00,76.5,68.0,29.91,SE,136,1.0,2.0,75,0.00,,CLR,0.00,VWS V14.01,2013-09-08 04:10:00,
2013-09-07 23:13:00,76.6,68.1,29.91,SE,136,1.0,3.0,75,0.00,,SCT095,0.00,VWS V14.01,2013-09-08 04:13:00,
2013-09-07 23:18:00,76.8,68.3,29.92,SSE,166,0.0,0.0,75,0.00,,SCT095,0.00,VWS V14.01,2013-09-08 04:18:00,
2013-09-07 23:20:00,76.7,68.2,29.91,SSE,166,0.0,3.0,75,0.00,,CLR,0.00,VWS V14.01,2013-09-08 04:20:00,
2013-09-07 23:23:00,76.8,68.3,29.91,SE,145,0.0,2.0,75,0.00,,SCT095,0.00,VWS V14.01,2013-09-08 04:23:00,
2013-09-07 23:28:00,76.8,68.3,29.91,SE,146,2.0,2.0,75,0.00,,SCT095,0.00,VWS V14.01,2013-09-08 04:28:00,
2013-09-07 23:30:00,76.8,68.3,29.91,SSE,163,1.0,2.0,75,0.00,,CLR,0.00,VWS V14.01,2013-09-08 04:30:00,
2013-09-07 23:33:00,76.8,68.3,29.91,SSE,156,1.0,2.0,75,0.00,,SCT095,0.00,VWS V14.01,2013-09-08 04:33:00,
2013-09-07 23:38:00,76.7,68.2,29.91,SE,146,1.0,2.0,75,0.00,,SCT095,0.00,VWS V14.01,2013-09-08 04:38:00,
2013-09-07 23:40:00,76.7,68.2,29.91,SSE,155,1.0,3.0,75,0.00,,CLR,0.00,VWS V14.01,2013-09-08 04:40:00,
2013-09-07 23:43:00,76.7,68.2,29.91,SE,141,0.0,2.0,75,0.00,,CLR,0.00,VWS V14.01,2013-09-08 04:43:00,
2013-09-07 23:48:00,76.7,68.2,29.91,SE,139,1.0,2.0,75,0.00,,CLR,0.00,VWS V14.01,2013-09-08 04:48:00,
2013-09-07 23:50:00,76.7,68.2,29.91,SSE,157,2.0,2.0,75,0.00,,CLR,0.00,VWS V14.01,2013-09-08 04:50:00,
2013-09-07 23:54:00,76.9,68.4,29.91,SSE,160,1.0,2.0,75,0.00,,CLR,0.00,VWS V14.01,2013-09-08 04:54:00,
2013-09-07 23:59:00,77.0,68.5,29.91,SSE,149,1.0,1.0,75,0.00,,CLR,0.00,VWS V14.01,2013-09-08 04:59:00,